Location: Burgberg
(50.1428°N, 11.0671°E)
Time: 21:26:35
(UTC+00:00)

STARLINK-69 - Pass Details

Date: 26 January 2020
Orbit: 528 x 531 km, 53.0° (Epoch: 28 February)

Event Time Altitude Azimuth Distance (km) Brightness Sun altitude
Exits shadow 05:06:35 42° 279° (W) 767 3.8 -17.7°
Maximum altitude 05:07:47 68° 346° (NNW) 577 3.5 -17.6°
Drops below altitude 10° 05:11:49 10° 70° (ENE) 1,783 7.2 -16.9°
Sets 05:14:03 0° 73° (ENE) 2,675 8.3 -16.6°
